When you browse on this site, cookies collect data to enhance your experience and personalize the content and advertising you see.
Visit our Privacy Policy to learn more. By continuing to use the site, you agree to this use of cookies and data.
  • In Hungary
  • List of Countries
  • For 7 days
  • Water Temperature
  • Satellite Maps
  • Weather Map
  • News
  • Weather Widgets
  • user-avatar
    Login

    Hourly Weather Meszna

    Today, 21 January, Monday

    Time Temperature Precipitation Wind Pressure Humidity
    00:00 -8°C° 0 mm 0 mps 723 mmHg 79%
    01:00 -8°C° 0 mm 0 mps 723 mmHg 79%
    02:00 -8°C° 0 mm 0 mps 723 mmHg 80%
    03:00 -9°C° 0 mm 0 mps 723 mmHg 80%
    04:00 -9°C° 0 mm 0 mps 723 mmHg 81%
    05:00 -9°C° 0 mm 0 mps 723 mmHg 81%
    06:00 -9°C° 0 mm 1 mps 723 mmHg 81%
    07:00 -9°C° 0 mm 1 mps 724 mmHg 81%
    08:00 -8°C° 0 mm 1 mps 724 mmHg 78%
    09:00 -7°C° 0 mm 1 mps 724 mmHg 75%
    10:00 -5°C° 0 mm 0 mps 724 mmHg 72%
    11:00 -4°C° 0 mm 0 mps 724 mmHg 70%
    12:00 -3°C° 0 mm 0 mps 724 mmHg 68%
    13:00 -2°C° 0 mm 0 mps 724 mmHg 66%
    14:00 -3°C° 0 mm 0 mps 724 mmHg 70%
    15:00 -4°C° 0 mm 0 mps 723 mmHg 74%
    16:00 -5°C° 0 mm 0 mps 723 mmHg 78%
    17:00 -4°C° 0 mm 1 mps 723 mmHg 79%
    18:00 -6°C° 0 mm 1 mps 723 mmHg 80%
    19:00 -7°C° 0 mm 1 mps 723 mmHg 81%
    20:00 -7°C° 0 mm 1 mps 722 mmHg 81%
    21:00 -7°C° 0 mm 1 mps 722 mmHg 80%
    22:00 -7°C° 0 mm 1 mps 722 mmHg 79%
    23:00 -7°C° 0 mm 1 mps 722 mmHg 79%

    Tomorrow, 22 January, Tuesday

    Time Temperature Precipitation Wind Pressure Humidity
    00:00 -7°C° 0 mm 1 mps 722 mmHg 78%
    01:00 -8°C° 0 mm 1 mps 722 mmHg 78%
    02:00 -8°C° 0 mm 1 mps 721 mmHg 78%
    03:00 -9°C° 0 mm 2 mps 721 mmHg 77%
    04:00 -9°C° 0 mm 2 mps 720 mmHg 77%
    05:00 -9°C° 0 mm 2 mps 720 mmHg 76%
    06:00 -9°C° 0 mm 2 mps 720 mmHg 76%
    07:00 -8°C° 0 mm 1 mps 720 mmHg 76%
    08:00 -7°C° 0 mm 1 mps 720 mmHg 74%
    09:00 -6°C° 0 mm 1 mps 720 mmHg 72%
    10:00 -3°C° 0 mm 1 mps 720 mmHg 70%
    11:00 -2°C° 0 mm 1 mps 719 mmHg 68%
    12:00 -1°C° 0 mm 1 mps 719 mmHg 65%
    13:00 -1°C° 0 mm 0 mps 718 mmHg 63%
    14:00 -3°C° 0 mm 0 mps 717 mmHg 67%
    15:00 -4°C° 0 mm 0 mps 717 mmHg 71%
    16:00 -5°C° 0 mm 0 mps 716 mmHg 75%
    17:00 -4°C° 0 mm 1 mps 716 mmHg 77%
    18:00 -6°C° 0 mm 1 mps 716 mmHg 78%
    19:00 -7°C° 0 mm 1 mps 715 mmHg 80%
    20:00 -7°C° 0 mm 1 mps 715 mmHg 80%
    21:00 -8°C° 0 mm 1 mps 715 mmHg 80%
    22:00 -8°C° 0 mm 1 mps 715 mmHg 80%
    23:00 -8°C° 0 mm 1 mps 714 mmHg 80%

    Day after tomorrow, 23 January, Wednesday

    Time Temperature Precipitation Wind Pressure Humidity
    00:00 -8°C° 0 mm 1 mps 714 mmHg 80%
    01:00 -9°C° 0 mm 1 mps 713 mmHg 80%
    02:00 -9°C° 0 mm 1 mps 713 mmHg 79%
    03:00 -9°C° 0 mm 1 mps 712 mmHg 79%
    04:00 -9°C° 0 mm 1 mps 712 mmHg 78%
    05:00 -10°C° 0 mm 2 mps 712 mmHg 79%
    06:00 -10°C° 0 mm 2 mps 712 mmHg 79%
    07:00 -12°C° 0 mm 2 mps 712 mmHg 79%
    08:00 -9°C° 0 mm 2 mps 712 mmHg 78%
    09:00 -8°C° 0 mm 2 mps 712 mmHg 77%
    10:00 -7°C° 0 mm 2 mps 712 mmHg 76%
    11:00 -6°C° 0 mm 2 mps 712 mmHg 75%
    12:00 -5°C° 0 mm 2 mps 712 mmHg 75%
    13:00 -4°C° 0 mm 2 mps 711 mmHg 75%
    14:00 -5°C° 0 mm 2 mps 711 mmHg 79%
    15:00 -6°C° 0 mm 2 mps 711 mmHg 84%
    16:00 -6°C° 0 mm 2 mps 711 mmHg 88%
    17:00 -7°C° 0 mm 2 mps 712 mmHg 90%
    18:00 -8°C° 0 mm 2 mps 712 mmHg 91%
    19:00 -9°C° 0 mm 2 mps 712 mmHg 92%
    20:00 -9°C° 0 mm 2 mps 713 mmHg 92%
    21:00 -10°C° 0 mm 2 mps 713 mmHg 91%
    22:00 -10°C° 0 mm 2 mps 714 mmHg 90%
    23:00 -10°C° 0 mm 2 mps 714 mmHg 89%

    24 January, Thursday

    Time Temperature Precipitation Wind Pressure Humidity
    00:00 -10°C° 0 mm 2 mps 714 mmHg 88%
    01:00 -10°C° 0 mm 2 mps 714 mmHg 86%
    02:00 -10°C° 0 mm 2 mps 714 mmHg 86%
    03:00 -10°C° 0 mm 1 mps 714 mmHg 85%
    04:00 -10°C° 0 mm 1 mps 714 mmHg 85%
    05:00 -10°C° 0 mm 1 mps 715 mmHg 85%
    06:00 -10°C° 0 mm 1 mps 715 mmHg 85%
    07:00 -10°C° 0 mm 1 mps 715 mmHg 86%
    08:00 -9°C° 0 mm 1 mps 716 mmHg 83%
    09:00 -8°C° 0 mm 2 mps 716 mmHg 81%
    10:00 -7°C° 0 mm 2 mps 716 mmHg 79%
    11:00 -6°C° 0 mm 2 mps 716 mmHg 78%
    12:00 -5°C° 0 mm 2 mps 716 mmHg 76%
    13:00 -4°C° 0 mm 2 mps 716 mmHg 75%
    14:00 -5°C° 0 mm 2 mps 716 mmHg 79%
    15:00 -6°C° 0 mm 2 mps 716 mmHg 83%
    16:00 -6°C° 0 mm 2 mps 716 mmHg 87%
    17:00 -7°C° 0 mm 2 mps 717 mmHg 89%
    18:00 -8°C° 0 mm 2 mps 717 mmHg 91%
    19:00 -9°C° 0 mm 2 mps 717 mmHg 92%
    20:00 -8°C° 0 mm 1 mps 717 mmHg 92%
    21:00 -9°C° 0 mm 1 mps 717 mmHg 92%
    22:00 -9°C° 0 mm 1 mps 717 mmHg 92%
    23:00 -9°C° 0 mm 1 mps 717 mmHg 92%

    25 January, Friday

    Time Temperature Precipitation Wind Pressure Humidity
    00:00 -9°C° 0 mm 1 mps 717 mmHg 92%
    01:00 -10°C° 0 mm 0 mps 717 mmHg 92%
    02:00 -10°C° 0 mm 0 mps 717 mmHg 92%
    03:00 -10°C° 0 mm 0 mps 717 mmHg 92%
    04:00 -10°C° 0 mm 0 mps 717 mmHg 93%
    05:00 -10°C° 0 mm 0 mps 717 mmHg 93%
    06:00 -9°C° 0 mm 0 mps 717 mmHg 92%
    07:00 -9°C° 0 mm 0 mps 718 mmHg 92%
    08:00 -9°C° 0 mm 1 mps 718 mmHg 90%
    09:00 -8°C° 0 mm 1 mps 718 mmHg 88%
    10:00 -7°C° 0 mm 1 mps 718 mmHg 86%
    11:00 -6°C° 0 mm 1 mps 718 mmHg 84%
    12:00 -6°C° 0 mm 1 mps 718 mmHg 82%
    13:00 -4°C° 0 mm 1 mps 718 mmHg 80%
    14:00 -6°C° 0 mm 1 mps 718 mmHg 81%
    15:00 -6°C° 0 mm 1 mps 718 mmHg 82%
    16:00 -6°C° 0 mm 1 mps 718 mmHg 83%
    17:00 -6°C° 0 mm 1 mps 719 mmHg 84%
    18:00 -6°C° 0 mm 1 mps 719 mmHg 86%
    19:00 -6°C° 0 mm 1 mps 719 mmHg 87%
    20:00 -6°C° 0 mm 1 mps 719 mmHg 88%
    21:00 -6°C° 0 mm 1 mps 719 mmHg 89%
    22:00 -7°C° 0 mm 1 mps 719 mmHg 90%
    23:00 -7°C° 0 mm 1 mps 719 mmHg 90%

    26 January, Saturday

    Time Temperature Precipitation Wind Pressure Humidity
    00:00 -7°C° 0 mm 1 mps 719 mmHg 91%
    01:00 -7°C° 0 mm 0 mps 719 mmHg 92%
    02:00 -8°C° 0 mm 0 mps 719 mmHg 92%
    03:00 -8°C° 0 mm 0 mps 719 mmHg 93%
    04:00 -9°C° 0 mm 0 mps 718 mmHg 94%
    05:00 -9°C° 0 mm 0 mps 718 mmHg 94%
    06:00 -9°C° 0 mm 1 mps 718 mmHg 94%
    07:00 -9°C° 0 mm 1 mps 718 mmHg 93%
    08:00 -8°C° 0 mm 1 mps 718 mmHg 89%
    09:00 -7°C° 0 mm 1 mps 718 mmHg 84%
    10:00 -4°C° 0 mm 1 mps 718 mmHg 79%
    11:00 -3°C° 0 mm 1 mps 718 mmHg 75%
    12:00 -1°C° 0 mm 1 mps 717 mmHg 70%
    13:00 0°C° 0 mm 1 mps 717 mmHg 66%
    14:00 -1°C° 0 mm 1 mps 717 mmHg 70%
    15:00 -1°C° 0 mm 1 mps 716 mmHg 73%
    16:00 -2°C° 0 mm 1 mps 716 mmHg 77%
    17:00 -4°C° 0 mm 2 mps 716 mmHg 77%
    18:00 -5°C° 0 mm 2 mps 715 mmHg 78%
    19:00 -5°C° 0 mm 2 mps 715 mmHg 78%
    20:00 -6°C° 0 mm 3 mps 715 mmHg 79%
    21:00 -6°C° 0 mm 3 mps 715 mmHg 80%
    22:00 -6°C° 0 mm 3 mps 715 mmHg 81%
    23:00 -6°C° 0 mm 3 mps 714 mmHg 83%
    Show more